Regional Weather Roundup
Issued by NWS

Home | Current Version | Previous Version | Graphics & Text | Print | Product List | Glossary On
Versions: 1 2 3 4 5 6 7 8 9 10 11 12 13 14 15 16 17 18 19 20 21 22 23 24 25 26 27 28 29 30 31 32 33 34 35 36 37 38 39 40 41 42 43 44 45 46 47 48 49 50
000
ASUS45 KABQ 290501
RWRNM
NEW MEXICO REGIONAL WEATHER ROUNDUP
NATIONAL WEATHER SERVICE ALBUQUERQUE NM
1100 PM MDT TUE MAR 28 2017

NOTE: "FAIR" MEANS FEW OR NO CLOUDS BELOW 12,000 FEET AGL WITH NO
       SIGNIFICANT WEATHER OR OBSTRUCTIONS TO VISION.

      THIS PRODUCT IS RELEASED AS TWO VERSIONS.  ONE VERSION NEAR
      THE TOP OF THE HOUR CONTAINING PRELIMINARY DATA FROM ALBUQUERQUE
      AND OTHER STATIONS.  A FINAL VERSION WITH ADDITIONAL DATA IS
      ISSUED ABOUT 10 MINUTES AFTER THE HOUR.

NMZ501-503-504-510>518-290600-
NORTHWEST PLATEAU/NORTHCENTRAL MOUNTAINS

CITY           SKY/WX    TMP DP  RH WIND       PRES   REMARKS
FARMINGTON     FAIR      46  32  58 NW10      29.83R
LOS ALAMOS     FOG       34  34 100 NE5       29.83R VSB 3/4 WCI  30
SANTA FE       FAIR      36  36 100 N10       29.78F WCI  28
TAOS             N/A     36  28  75 N6        29.84S WCI  31
ANGEL FIRE     CLOUDY    33  31  93 NE13G18   29.87R WCI  24

$$
NMZ402-403-502-505>509-290600-
WESTCENTRAL MOUNTAINS/SOUTHWEST MOUNTAINS

CITY           SKY/WX    TMP DP  RH WIND       PRES   REMARKS
GALLUP         FAIR      40  31  70 NW8       29.92S WCI  34
GRANTS         CLOUDY    41  35  81 NW20G26   29.87F
SILVER CITY    FAIR      42  35  76 NW20G28   29.90S

$$
NMZ407-409-411-412-290600-
SOUTHERN DESERTS

CITY           SKY/WX    TMP DP  RH WIND       PRES   REMARKS
DEMING         FAIR      50  35  56 W14G22    29.88S
LAS CRUCES     FAIR      50  32  50 W16       29.86R
HOLLOMAN AFB   MOCLDY    51  38  61 E5        29.85R
ALAMOGORDO       N/A     48  37  66 NE3       29.83S
T OR C         FAIR      48  34  58 NW9       29.84R

$$
NMZ519>523-290600-
CENTRAL VALLEYS/CENTRAL HIGHLANDS

CITY           SKY/WX    TMP DP  RH WIND       PRES   REMARKS
ALBUQUERQUE    LGT RAIN  45  36  70 N5        29.81F
MORIARTY ARPT  FAIR      37  34  90 CALM      29.81S
CLINES CORNERS FAIR      34  32  92 NW14      29.79  WCI  25
BELEN          DRIZZLE   44  39  83 W14       29.81F
SOCORRO        CLOUDY    49  32  52 N10G17    29.82S

$$
NMZ524>526-539-540-290600-
SOUTHCENTRAL MOUNTAINS

CITY           SKY/WX    TMP DP  RH WIND       PRES   REMARKS
RUIDOSO        NOT AVBL

$$
NMZ527>531-290600-
NORTHEAST HIGHLANDS/NORTHEAST PLAINS

CITY           SKY/WX    TMP DP  RH WIND       PRES   REMARKS
LAS VEGAS      FAIR      31  30  96 NE10      29.81R WCI  22
RATON          MOCLDY    40  36  86 NE15      29.84S WCI  32
CLAYTON        LGT RAIN  41  41 100 NE17      29.86R FOG

$$
NMZ532>537-290600-
EASTCENTRAL PLAINS

CITY           SKY/WX    TMP DP  RH WIND       PRES   REMARKS
TUCUMCARI      CLOUDY    46  44  93 NE17      29.71F
CANNON AFB     FAIR      47  47 100 NE30G36   29.67F
CLOVIS AIRPORT CLOUDY    46  39  76 NE18      29.72S

$$
NMZ028-029-538-290600-
SOUTHEAST PLAINS

CITY           SKY/WX    TMP DP  RH WIND       PRES   REMARKS
ROSWELL        RAIN      49  43  80 W21G31      N/A
ARTESIA        RAIN      50  46  87 NW21G37   29.76R
CARLSBAD       CLOUDY    57  33  40 W22G32    29.72R
HOBBS          FAIR      48  36  61 SW9G17    29.73S


$$




USA.gov is the U.S. government's official web portal to all federal, state and local government web resources and services.